When you browse on this site, cookies collect data to enhance your experience and personalize the content and advertising you see.
Visit our Privacy Policy to learn more. By continuing to use the site, you agree to this use of cookies and data.
  • Em Portugal
  • Lista de países
  • Para 7 dias
  • Temperatura da água
  • Mapas de satélite
  • Mapa do tempo
  • Widgets de tempo
  • user-avatar
    Iniciar Sessão

    Previsão horária em Rogow

    Hoje, 19 Junho, Quarta-feira

    Tempo Temperatura Precipitação Vento Pressão Humidade
    00:00 +18°C° 0 mm 2 m/s 741 mmHg 92%
    01:00 +18°C° 0 mm 2 m/s 741 mmHg 94%
    02:00 +17°C° 0 mm 2 m/s 741 mmHg 94%
    03:00 +17°C° 0 mm 2 m/s 740 mmHg 95%
    04:00 +17°C° 0 mm 2 m/s 740 mmHg 95%
    05:00 +19°C° 0.3 mm 3 m/s 740 mmHg 92%
    06:00 +20°C° 0.3 mm 3 m/s 740 mmHg 89%
    07:00 +21°C° 0.3 mm 3 m/s 740 mmHg 86%
    08:00 +22°C° 0.2 mm 3 m/s 740 mmHg 81%
    09:00 +25°C° 0.2 mm 3 m/s 740 mmHg 76%
    10:00 +26°C° 0.2 mm 3 m/s 739 mmHg 71%
    11:00 +27°C° 0.8 mm 3 m/s 739 mmHg 67%
    12:00 +28°C° 0.8 mm 3 m/s 739 mmHg 63%
    13:00 +29°C° 0.8 mm 3 m/s 739 mmHg 59%
    14:00 +29°C° 0.8 mm 3 m/s 738 mmHg 59%
    15:00 +29°C° 0.8 mm 3 m/s 738 mmHg 58%
    16:00 +29°C° 0.8 mm 2 m/s 737 mmHg 58%
    17:00 +28°C° 0.7 mm 2 m/s 737 mmHg 64%
    18:00 +26°C° 0.7 mm 2 m/s 737 mmHg 70%
    19:00 +25°C° 0.7 mm 1 m/s 737 mmHg 75%
    20:00 +24°C° 0.1 mm 1 m/s 737 mmHg 77%
    21:00 +23°C° 0.1 mm 1 m/s 737 mmHg 79%
    22:00 +22°C° 0.1 mm 1 m/s 737 mmHg 81%
    23:00 +22°C° 0 mm 1 m/s 737 mmHg 82%

    Amanhã, 20 Junho, Quinta-feira

    Tempo Temperatura Precipitação Vento Pressão Humidade
    00:00 +20°C° 0 mm 2 m/s 737 mmHg 84%
    01:00 +20°C° 0 mm 2 m/s 737 mmHg 85%
    02:00 +20°C° 0.5 mm 2 m/s 737 mmHg 87%
    03:00 +19°C° 0.5 mm 2 m/s 737 mmHg 88%
    04:00 +19°C° 0.5 mm 2 m/s 737 mmHg 90%
    05:00 +22°C° 0.2 mm 1 m/s 737 mmHg 85%
    06:00 +23°C° 0.2 mm 1 m/s 737 mmHg 80%
    07:00 +24°C° 0.2 mm 1 m/s 737 mmHg 75%
    08:00 +26°C° 0.3 mm 1 m/s 737 mmHg 68%
    09:00 +27°C° 0.3 mm 1 m/s 737 mmHg 62%
    10:00 +29°C° 0.3 mm 1 m/s 738 mmHg 55%
    11:00 +29°C° 0.1 mm 1 m/s 737 mmHg 52%
    12:00 +30°C° 0.1 mm 1 m/s 737 mmHg 48%
    13:00 +31°C° 0.1 mm 1 m/s 737 mmHg 45%
    14:00 +30°C° 0 mm 1 m/s 737 mmHg 48%
    15:00 +30°C° 0 mm 1 m/s 737 mmHg 52%
    16:00 +29°C° 0 mm 1 m/s 737 mmHg 56%
    17:00 +27°C° 1 mm 1 m/s 737 mmHg 64%
    18:00 +26°C° 1 mm 2 m/s 737 mmHg 73%
    19:00 +24°C° 1 mm 2 m/s 736 mmHg 82%
    20:00 +23°C° 1.1 mm 2 m/s 737 mmHg 82%
    21:00 +23°C° 1.1 mm 1 m/s 737 mmHg 82%
    22:00 +22°C° 1.1 mm 1 m/s 738 mmHg 82%
    23:00 +21°C° 0.2 mm 1 m/s 738 mmHg 85%

    Depois de amanhã, 21 Junho, Sexta-feira

    Tempo Temperatura Precipitação Vento Pressão Humidade
    00:00 +21°C° 0.2 mm 1 m/s 738 mmHg 87%
    01:00 +20°C° 0.2 mm 1 m/s 738 mmHg 90%
    02:00 +20°C° 0 mm 1 m/s 738 mmHg 90%
    03:00 +20°C° 0 mm 1 m/s 738 mmHg 90%
    04:00 +20°C° 0 mm 1 m/s 738 mmHg 90%
    05:00 +21°C° 0 mm 1 m/s 738 mmHg 85%
    06:00 +23°C° 0 mm 1 m/s 739 mmHg 81%
    07:00 +22°C° 0 mm 0 m/s 739 mmHg 76%
    08:00 +25°C° 0.1 mm 1 m/s 739 mmHg 70%
    09:00 +27°C° 0.1 mm 1 m/s 739 mmHg 63%
    10:00 +28°C° 0.1 mm 1 m/s 739 mmHg 57%
    11:00 +28°C° 0.3 mm 2 m/s 739 mmHg 57%
    12:00 +28°C° 0.3 mm 2 m/s 739 mmHg 56%
    13:00 +28°C° 0.3 mm 2 m/s 739 mmHg 56%
    14:00 +28°C° 1 mm 2 m/s 739 mmHg 59%
    15:00 +27°C° 1 mm 2 m/s 739 mmHg 63%
    16:00 +27°C° 1 mm 1 m/s 738 mmHg 67%
    17:00 +26°C° 0.5 mm 2 m/s 738 mmHg 72%
    18:00 +25°C° 0.5 mm 2 m/s 738 mmHg 78%
    19:00 +24°C° 0.5 mm 2 m/s 738 mmHg 83%
    20:00 +23°C° 0.1 mm 2 m/s 739 mmHg 85%
    21:00 +21°C° 0.1 mm 2 m/s 739 mmHg 87%
    22:00 +20°C° 0.1 mm 2 m/s 739 mmHg 89%
    23:00 +21°C° 0.3 mm 1 m/s 739 mmHg 90%

    22 Junho, Sábado

    Tempo Temperatura Precipitação Vento Pressão Humidade
    00:00 +21°C° 0.3 mm 1 m/s 739 mmHg 90%
    01:00 +20°C° 0.3 mm 1 m/s 739 mmHg 91%
    02:00 +20°C° 0.1 mm 1 m/s 739 mmHg 93%
    03:00 +19°C° 0.1 mm 2 m/s 740 mmHg 94%
    04:00 +18°C° 0.1 mm 2 m/s 740 mmHg 95%
    05:00 +19°C° 0 mm 2 m/s 740 mmHg 94%
    06:00 +20°C° 0 mm 3 m/s 740 mmHg 92%
    07:00 +21°C° 0 mm 3 m/s 741 mmHg 90%
    08:00 +21°C° 0.4 mm 3 m/s 741 mmHg 88%
    09:00 +22°C° 0.4 mm 4 m/s 741 mmHg 85%
    10:00 +22°C° 0.4 mm 4 m/s 741 mmHg 82%
    11:00 +23°C° 0.4 mm 4 m/s 741 mmHg 79%
    12:00 +25°C° 0.4 mm 5 m/s 741 mmHg 76%
    13:00 +26°C° 0.4 mm 5 m/s 741 mmHg 73%
    14:00 +25°C° 0.9 mm 5 m/s 740 mmHg 75%
    15:00 +23°C° 0.9 mm 5 m/s 740 mmHg 77%
    16:00 +23°C° 0.9 mm 4 m/s 740 mmHg 80%
    17:00 +22°C° 1.4 mm 4 m/s 740 mmHg 83%
    18:00 +21°C° 1.4 mm 4 m/s 740 mmHg 87%
    19:00 +20°C° 1.4 mm 4 m/s 740 mmHg 90%
    20:00 +20°C° 1.1 mm 3 m/s 740 mmHg 91%
    21:00 +20°C° 1.1 mm 3 m/s 740 mmHg 92%
    22:00 +19°C° 1.1 mm 3 m/s 740 mmHg 94%
    23:00 +19°C° 0.5 mm 4 m/s 740 mmHg 95%

    23 Junho, Domingo

    Tempo Temperatura Precipitação Vento Pressão Humidade
    00:00 +19°C° 0.5 mm 4 m/s 740 mmHg 96%
    01:00 +19°C° 0.5 mm 4 m/s 739 mmHg 96%
    02:00 +19°C° 0.9 mm 4 m/s 739 mmHg 97%
    03:00 +18°C° 0.9 mm 4 m/s 739 mmHg 97%
    04:00 +18°C° 0.9 mm 4 m/s 739 mmHg 97%
    05:00 +18°C° 1.4 mm 4 m/s 739 mmHg 97%
    06:00 +18°C° 1.4 mm 3 m/s 739 mmHg 97%
    07:00 +18°C° 1.4 mm 3 m/s 739 mmHg 97%
    08:00 +18°C° 0.4 mm 3 m/s 739 mmHg 97%
    09:00 +18°C° 0.4 mm 3 m/s 739 mmHg 96%
    10:00 +19°C° 0.4 mm 3 m/s 738 mmHg 96%
    11:00 +19°C° 0.3 mm 3 m/s 739 mmHg 95%
    12:00 +19°C° 0.3 mm 4 m/s 739 mmHg 93%
    13:00 +19°C° 0.3 mm 4 m/s 739 mmHg 92%
    14:00 +18°C° 0.2 mm 4 m/s 739 mmHg 93%
    15:00 +17°C° 0.2 mm 4 m/s 739 mmHg 94%
    16:00 +17°C° 0.2 mm 4 m/s 739 mmHg 95%
    17:00 +16°C° 0.4 mm 5 m/s 740 mmHg 95%
    18:00 +15°C° 0.4 mm 5 m/s 740 mmHg 96%
    19:00 +15°C° 0.4 mm 5 m/s 740 mmHg 96%
    20:00 +15°C° 0.8 mm 5 m/s 741 mmHg 96%
    21:00 +15°C° 0.8 mm 6 m/s 741 mmHg 96%
    22:00 +15°C° 0.8 mm 6 m/s 741 mmHg 96%
    23:00 +15°C° 0.7 mm 6 m/s 742 mmHg 96%

    24 Junho, Segunda-feira

    Tempo Temperatura Precipitação Vento Pressão Humidade
    00:00 +14°C° 0.7 mm 6 m/s 742 mmHg 95%
    01:00 +14°C° 0.7 mm 6 m/s 742 mmHg 95%
    02:00 +14°C° 0.5 mm 6 m/s 742 mmHg 95%
    03:00 +13°C° 0.5 mm 6 m/s 743 mmHg 95%
    04:00 +13°C° 0.5 mm 5 m/s 743 mmHg 95%
    05:00 +13°C° 0 mm 5 m/s 743 mmHg 94%
    06:00 +13°C° 0 mm 5 m/s 744 mmHg 93%
    07:00 +12°C° 0 mm 5 m/s 744 mmHg 92%
    08:00 +14°C° 0 mm 5 m/s 745 mmHg 84%
    09:00 +16°C° 0 mm 5 m/s 745 mmHg 77%
    10:00 +17°C° 0 mm 5 m/s 746 mmHg 69%
    11:00 +17°C° 0 mm 5 m/s 746 mmHg 67%
    12:00 +19°C° 0 mm 4 m/s 746 mmHg 65%
    13:00 +19°C° 0 mm 4 m/s 746 mmHg 62%
    14:00 +20°C° 0 mm 4 m/s 746 mmHg 60%
    15:00 +21°C° 0 mm 5 m/s 746 mmHg 58%
    16:00 +22°C° 0 mm 5 m/s 746 mmHg 56%
    17:00 +21°C° 0 mm 4 m/s 746 mmHg 63%
    18:00 +20°C° 0 mm 3 m/s 747 mmHg 69%
    19:00 +19°C° 0 mm 3 m/s 747 mmHg 75%
    20:00 +17°C° 0 mm 2 m/s 747 mmHg 78%
    21:00 +16°C° 0 mm 2 m/s 747 mmHg 81%
    22:00 +15°C° 0 mm 2 m/s 748 mmHg 84%
    23:00 +14°C° 0 mm 2 m/s 748 mmHg 86%
    Mostrar mais